Location: Ottawa
(45.4167°N, 75.7000°W)
Time: 15:08:54
(UTC-04:00)

Tiangong 1 - Pass Details

Date: 07 October 2017
Orbit: 292 x 320 km, 42.8° (Epoch: 22 October)

Event Time Altitude Azimuth Distance (km) Brightness Sun altitude
Rises 20:21:09 0° 255° (WSW) 2,030 5.8 -20.0°
Reaches altitude 10° 20:23:10 10° 248° (WSW) 1,195 4.3 -20.4°
Enters shadow 20:24:35 25° 232° (SW) 672 2.7 -20.6°
